HP2BWJ-13 Weather Reports


time (UTC)temp
C
wind
direction
speed
KPH
gust
KPH
rain 1hr
cm
rain 24hr
cm
rain mn
cm
humidity
%
barometer
mb
20260503032928 26 177 6.4 9.7 0.00 0.00 0.00 93 1012.0
20260503030923 22 137 4.8 8.0 0.08 0.00 0.00 93 1012.0
20260503030823 22 137 4.8 8.0 0.08 0.00 0.00 93 1012.0
20260503024923 23 137 4.8 8.0 0.08 0.00 0.00 93 1012.0
20260503024822 23 137 4.8 8.0 0.08 0.00 0.00 93 1012.0
20260503022922 23 137 4.8 8.0 0.08 0.00 0.00 93 1012.0
20260503022821 23 137 4.8 8.0 0.08 0.00 0.00 93 1012.0
20260503020921 24 137 4.8 8.0 0.08 0.00 0.00 93 1012.0
20260503020820 24 137 4.8 8.0 0.08 0.00 0.00 93 1012.0
20260503014920 25 137 4.8 8.0 0.08 0.00 0.00 93 1012.0
20260503014819 25 137 4.8 8.0 0.08 0.00 0.00 93 1012.0
20260503012919 25 137 4.8 9.7 0.08 0.00 0.00 93 1011.0
20260503012819 25 137 4.8 9.7 0.08 0.00 0.00 93 1011.0
20260503010918 23 30 1.6 4.8 0.08 0.00 0.00 92 1011.0
20260503010818 23 30 1.6 4.8 0.08 0.00 0.00 92 1011.0
20260503004916 23 30 1.6 4.8 0.08 0.00 0.00 92 1011.0
20260503004816 23 30 1.6 4.8 0.08 0.00 0.00 92 1011.0
20260503002915 24 30 1.6 4.8 0.05 0.00 0.00 92 1011.0
20260503002815 24 30 1.6 4.8 0.05 0.00 0.00 92 1011.0
20260503000911 25 30 1.6 4.8 0.05 0.00 0.00 92 1011.0
20260503000811 25 30 1.6 4.8 0.05 0.00 0.00 92 1011.0
20260502234910 25 30 3.2 4.8 0.10 0.00 0.00 92 1010.0
20260502234810 25 30 3.2 4.8 0.10 0.00 0.00 92 1010.0
20260502234434 25 30 3.2 4.8 0.10 0.00 0.00 92 1010.0
20260502234334 25 30 3.2 4.8 0.10 0.00 0.00 92 1010.0
20260502232433 23 10 4.8 8.0 0.15 0.00 0.00 89 1010.0
20260502232333 23 10 4.8 8.0 0.15 0.00 0.00 89 1010.0
20260502230432 24 10 4.8 8.0 0.23 0.00 0.00 89 1010.0
20260502230332 24 10 4.8 8.0 0.23 0.00 0.00 89 1010.0
20260502224431 25 10 4.8 8.0 0.33 0.00 0.00 89 1009.0
20260502224331 25 10 4.8 8.0 0.33 0.00 0.00 89 1009.0
20260502222430 25 10 4.8 8.0 0.71 0.00 0.00 89 1009.0
20260502222330 25 10 4.8 8.0 0.71 0.00 0.00 89 1009.0
20260502220430 26 10 4.8 8.0 0.20 0.00 0.00 89 1009.0
20260502220329 26 10 4.8 8.0 0.20 0.00 0.00 89 1009.0
20260502214429 26 10 4.8 9.7 0.23 0.00 0.00 89 1009.0
20260502214328 26 10 4.8 9.7 0.23 0.00 0.00 89 1009.0
20260502212428 25 329 8.0 11.3 0.23 0.00 0.00 76 1009.0
20260502212327 25 329 8.0 11.3 0.23 0.00 0.00 76 1009.0
20260502210427 25 329 8.0 11.3 0.23 0.00 0.00 76 1009.0
20260502210326 25 329 8.0 11.3 0.23 0.00 0.00 76 1009.0
20260502204426 26 329 8.0 11.3 0.08 0.00 0.00 76 1008.0
20260502204326 26 329 8.0 11.3 0.08 0.00 0.00 76 1008.0
20260502202425 26 329 8.0 11.3 0.08 0.00 0.00 76 1009.0
20260502202325 26 329 8.0 11.3 0.08 0.00 0.00 76 1009.0
20260502200424 27 329 8.0 11.3 0.00 0.00 0.00 76 1009.0
20260502200324 27 329 8.0 11.3 0.00 0.00 0.00 76 1009.0
20260502194423 27 329 8.0 11.3 0.00 0.00 0.00 76 1009.0
20260502194323 27 329 8.0 11.3 0.00 0.00 0.00 76 1009.0
20260502192422 28 329 8.0 11.3 0.00 0.00 0.00 76 1009.0
20260502192322 28 329 8.0 11.3 0.00 0.00 0.00 76 1009.0
20260502190421 28 329 8.0 11.3 0.00 0.00 0.00 76 1009.0
20260502190321 28 329 8.0 11.3 0.00 0.00 0.00 76 1009.0
20260502184421 29 329 8.0 11.3 0.00 0.00 0.00 76 1009.0
20260502184320 29 329 8.0 11.3 0.00 0.00 0.00 76 1009.0
20260502182420 30 329 8.0 11.3 0.00 0.00 0.00 76 1009.0
20260502182320 30 329 8.0 11.3 0.00 0.00 0.00 76 1009.0
20260502180419 30 329 8.0 11.3 0.00 0.00 0.00 76 1009.0
20260502180319 30 329 8.0 11.3 0.00 0.00 0.00 76 1009.0
20260502170416 32 329 9.7 11.3 0.00 0.00 0.00 76 1011.0
20260502170316 32 329 9.7 11.3 0.00 0.00 0.00 76 1011.0
20260502164315 27 354 6.4 8.0 0.00 0.00 0.00 82 1010.0
20260502162414 27 354 6.4 8.0 0.00 0.00 0.00 82 1011.0
20260502162314 27 354 6.4 8.0 0.00 0.00 0.00 82 1011.0
20260502160414 28 354 6.4 8.0 0.00 0.00 0.00 82 1010.0
20260502160313 28 354 6.4 8.0 0.00 0.00 0.00 82 1010.0
20260502152311 29 354 6.4 8.0 0.00 0.00 0.00 82 1011.0
20260502150411 30 354 6.4 9.7 0.00 0.00 0.00 82 1011.0
20260502150310 30 354 6.4 9.7 0.00 0.00 0.00 82 1011.0
20260502130405 25 21 4.8 8.0 0.00 0.00 0.00 88 1010.0
20260502130305 25 21 4.8 8.0 0.00 0.00 0.00 88 1010.0
20260502122403 26 90 0.0 1.6 0.00 0.00 0.00 88 1009.0
20260502122305 26 90 0.0 1.6 0.00 0.00 0.00 88 1009.0
20260502120402 26 90 0.0 1.6 0.00 0.00 0.00 88 1009.0
20260502120301 26 90 0.0 1.6 0.00 0.00 0.00 88 1009.0
20260502114401 27 90 0.0 1.6 0.00 0.00 0.00 88 1009.0
20260502114301 27 90 0.0 1.6 0.00 0.00 0.00 88 1009.0
20260502112400 22 32 1.6 1.6 0.00 0.00 0.00 83 1009.0
20260502112300 22 32 1.6 1.6 0.00 0.00 0.00 83 1009.0
20260502110359 23 32 1.6 1.6 0.00 0.00 0.00 83 1009.0
20260502110259 23 32 1.6 1.6 0.00 0.00 0.00 83 1009.0
20260502104358 23 32 1.6 1.6 0.00 0.00 0.00 83 1009.0
20260502104258 23 32 1.6 1.6 0.00 0.00 0.00 83 1009.0
20260502102357 24 32 1.6 1.6 0.00 0.00 0.00 83 1008.0
20260502102257 24 32 1.6 1.6 0.00 0.00 0.00 83 1008.0
20260502100356 25 32 1.6 1.6 0.00 0.00 0.00 83 1008.0
20260502100256 25 32 1.6 1.6 0.00 0.00 0.00 83 1008.0
20260502090354 26 32 1.6 3.2 0.03 0.00 0.00 83 1008.0
20260502090253 26 32 1.6 3.2 0.03 0.00 0.00 83 1008.0
20260502070349 23 46 1.6 4.8 0.43 0.00 0.00 89 1009.0
20260502070248 23 46 1.6 4.8 0.43 0.00 0.00 89 1009.0
20260502064348 23 46 1.6 4.8 0.58 0.00 0.00 89 1008.0
20260502064248 23 46 1.6 4.8 0.58 0.00 0.00 89 1008.0
20260502062347 24 46 1.6 4.8 0.33 0.00 0.00 89 1009.0
20260502062247 24 46 1.6 4.8 0.33 0.00 0.00 89 1009.0
20260502060346 25 46 1.6 4.8 0.36 0.00 0.00 89 1009.0
20260502060246 25 46 1.6 4.8 0.36 0.00 0.00 89 1009.0
20260502054345 25 46 1.6 4.8 0.38 0.00 0.00 89 1008.0
20260502054245 25 46 1.6 4.8 0.38 0.00 0.00 89 1008.0
20260502052344 26 46 1.6 4.8 0.10 0.00 0.00 89 1009.0
20260502052244 26 46 1.6 4.8 0.10 0.00 0.00 89 1009.0
20260502050344 26 46 1.6 4.8 0.03 0.00 0.00 89 1009.0
20260502050243 26 46 1.6 4.8 0.03 0.00 0.00 89 1009.0
20260502044343 27 46 1.6 4.8 0.00 0.00 0.00 89 1009.0
20260502044243 27 46 1.6 4.8 0.00 0.00 0.00 89 1009.0
20260502042342 27 46 1.6 4.8 0.00 0.00 0.00 89 1009.0
20260502042242 27 46 1.6 4.8 0.00 0.00 0.00 89 1009.0
20260502040341 28 46 1.6 4.8 0.00 0.00 0.00 89 1009.0
20260502040241 28 46 1.6 4.8 0.00 0.00 0.00 89 1009.0
20260502034341 28 46 3.2 4.8 0.00 0.00 0.00 89 1009.0
20260502034240 28 46 3.2 4.8 0.00 0.00 0.00 89 1009.0